Regional Weather Roundup
Issued by NWS

Home | Current Version | Previous Version | Text Only | Print | Product List | Glossary Off
Versions: 1 2 3 4 5 6 7 8 9 10 11 12 13 14 15 16 17 18 19 20 21 22 23 24 25 26 27 28 29 30 31 32 33 34 35 36 37 38 39 40 41 42 43 44 45 46 47 48 49 50

000
ASUS43 KLSX 282210
RWRMO

WEATHER SUMMARY FOR MISSOURI
NATIONAL WEATHER SERVICE SPRINGFIELD MO
500 PM CDT THU JUL 28 2016

NOTE: "FAIR" INDICATES FEW OR NO CLOUDS BELOW 12,000 FEET WITH NO
       SIGNIFICANT WEATHER AND/OR OBSTRUCTIONS TO VISIBILITY.
       CURRENT SKY AND/OR WEATHER CONDITIONS ARE NOT AVAILABLE FOR
       CHILLICOTHE AND FARMINGTON.

MOZ001>031-035>038-043-044-053-054-282300-
...NORTHERN AND WESTERN MISSOURI...

CITY           SKY/WX    TMP DP  RH WIND       PRES   REMARKS
KANSAS CTY INT MOSUNNY   86  66  51 N7        29.93F
KANSAS C DTWN  SUNNY     89  67  47 N12       29.90F HX  92
LEE`S SUMMIT   MOSUNNY   89  67  47 N8G17     29.92F HX  92
ST JOSEPH      SUNNY     86  66  51 N8        29.93F
CHILLICOTHE      N/A     90  64  42 N7        29.93S HX  91
KIRKSVILLE     MOSUNNY   87  65  47 N14       29.93F

$$
MOZ066>068-077>081-088>096-101>105-282300-
...SOUTHWEST MISSOURI...

CITY           SKY/WX    TMP DP  RH WIND       PRES   REMARKS
SPRINGFIELD    PTSUNNY   86  65  49 W10       29.91F
JOPLIN         SUNNY     90  72  55 W7        29.93S HX  97
BRANSON        MOSUNNY   90  72  55 W5        29.93F HX  96

$$
MOZ032>034-039>042-045>050-055>058-069>072-282300-
...CENTRAL MISSOURI...

CITY           SKY/WX    TMP DP  RH WIND       PRES   REMARKS
COLUMBIA       MOSUNNY   87  69  54 NW6       29.90S HX  91
JEFFERSON CITY PTSUNNY   85  74  69 S7        29.88S HX  92
ROLLA          CLOUDY    76  70  82 S5        29.91F
SEDALIA        PTSUNNY   88  73  61 N8        29.92S HX  95
WHITEMAN AFB   PTSUNNY   88  70  55 N9        29.90  HX  93
OSAGE BEACH    PTSUNNY   77  72  84 VRB3      29.92S

$$
MOZ051-052-059>065-282300-
...EAST CENTRAL MISSOURI...

CITY           SKY/WX    TMP DP  RH WIND       PRES   REMARKS
ST LOUIS INTL  NOT AVBL
SPIRIT OF STL  CLOUDY    88  73  61 W6        29.86R HX  95
ST CHARLES     MOSUNNY   88  72  58 NW13      29.86R HX  94

$$
MOZ072>076-082>087-097>100-106>115-282300-
...SOUTH CENTRAL AND SOUTHEAST MISSOURI...

CITY           SKY/WX    TMP DP  RH WIND       PRES   REMARKS
CAPE GIRARDEAU CLOUDY    78  71  79 SW5       29.87S
FARMINGTON     MOSUNNY   87  72  60 W7        29.90R HX  93
POPLAR BLUFF   CLOUDY    73  69  87 SE7       29.89F
WEST PLAINS    SUNNY     89  68  49 SW3       29.93F HX  93

$$



USA.gov is the U.S. government's official web portal to all federal, state and local government web resources and services.